EWG92K EDDL-LEPA

Flight info

Callsign EWG92K
Flight time 2h 7m
Altitude 24000
Route MODRU7Z/05R MODRU Z283 LNO/N0446F350 Z283 RITAX UT27 ROUSY DCT GTQ DCT POGOL DCT LASAT DCT MOROK DCT GILIR DCT GEVEA DCT INCUS DCT BALSI DCT RETNO DCT TUPOX DCT MTG DCT DIVKO DCT VATIR N852 VERSO L129 LUNIK
Aircraft A320/M-SDE3FGHIRWY/LB1

Departure

Time 2026-05-06 11:45
Airport Düsseldorf Airport (EDDL)

Arrival

Time 2026-05-06 13:53
Airport Palma de Mallorca Airport (LEPA)
Time Latitude Longitude Altitude Speed Heading
2026-05-06 11:10 51.28012 6.76418 129 ft 0 kts 208°
2026-05-06 11:34 51.28022 6.76426 124 ft 3 kts 208°
2026-05-06 11:35 51.28040 6.76442 126 ft 3 kts 205°
2026-05-06 11:35 51.28057 6.76450 124 ft 3 kts 168°
2026-05-06 11:35 51.28074 6.76438 123 ft 3 kts 146°
2026-05-06 11:35 51.28089 6.76423 124 ft 3 kts 147°
2026-05-06 11:36 51.28105 6.76405 123 ft 3 kts 140°
2026-05-06 11:36 51.28120 6.76383 125 ft 3 kts 127°
2026-05-06 11:36 51.28131 6.76356 124 ft 3 kts 117°
2026-05-06 11:36 51.28138 6.76334 124 ft 1 kts 117°
2026-05-06 11:37 51.28145 6.76312 123 ft 3 kts 134°
2026-05-06 11:37 51.28159 6.76298 123 ft 3 kts 185°
2026-05-06 11:37 51.28174 6.76308 124 ft 3 kts 225°
2026-05-06 11:37 51.28187 6.76331 122 ft 2 kts 233°
2026-05-06 11:38 51.28194 6.76346 123 ft 2 kts 232°
2026-05-06 11:38 51.28201 6.76361 123 ft 0 kts 232°
2026-05-06 11:41 51.28184 6.76327 123 ft 6 kts 232°
2026-05-06 11:41 51.28181 6.76267 124 ft 10 kts 295°
2026-05-06 11:41 51.28203 6.76191 124 ft 7 kts 266°
2026-05-06 11:42 51.28173 6.76113 129 ft 8 kts 232°
2026-05-06 11:42 51.28138 6.76039 126 ft 10 kts 233°
2026-05-06 11:42 51.28077 6.75911 126 ft 19 kts 232°
2026-05-06 11:42 51.27998 6.75745 128 ft 19 kts 232°
2026-05-06 11:43 51.27920 6.75582 127 ft 18 kts 232°
2026-05-06 11:43 51.27848 6.75432 126 ft 13 kts 233°
2026-05-06 11:43 51.27859 6.75337 122 ft 9 kts 322°
2026-05-06 11:44 51.27990 6.75269 120 ft 10 kts 33°
2026-05-06 11:44 51.28027 6.75338 121 ft 6 kts 52°
2026-05-06 11:44 51.28034 6.75354 124 ft 1 kts 53°
2026-05-06 11:44 51.28130 6.75554 126 ft 57 kts 52°
2026-05-06 11:45 51.28494 6.76316 125 ft 116 kts 53°
2026-05-06 11:45 51.29084 6.77561 141 ft 163 kts 51°
2026-05-06 11:45 51.29758 6.79024 775 ft 161 kts 51°
2026-05-06 11:45 51.30409 6.80474 1562 ft 160 kts 52°
2026-05-06 11:46 51.31066 6.81934 2108 ft 169 kts 51°
2026-05-06 11:46 51.31826 6.83526 2363 ft 191 kts 50°
2026-05-06 11:46 51.32698 6.85305 2627 ft 216 kts 50°
2026-05-06 11:46 51.33668 6.87310 3025 ft 240 kts 50°
2026-05-06 11:47 51.34888 6.89248 3585 ft 252 kts 34°
2026-05-06 11:47 51.36440 6.90623 4353 ft 260 kts 19°
2026-05-06 11:47 51.38196 6.91285 5110 ft 266 kts
2026-05-06 11:47 51.40036 6.91768 5945 ft 270 kts
2026-05-06 11:48 51.41905 6.92264 6732 ft 275 kts
2026-05-06 11:48 51.43818 6.92772 7489 ft 281 kts
2026-05-06 11:48 51.45757 6.93271 8248 ft 285 kts
2026-05-06 11:48 51.47742 6.93039 8977 ft 289 kts 343°
2026-05-06 11:49 51.49544 6.91615 9720 ft 291 kts 319°
2026-05-06 11:49 51.50900 6.89204 10247 ft 299 kts 297°
2026-05-06 11:49 51.51748 6.86038 10451 ft 320 kts 288°
2026-05-06 11:49 51.52534 6.82649 10825 ft 335 kts 289°
2026-05-06 11:50 51.53357 6.79127 11473 ft 339 kts 289°
2026-05-06 11:50 51.54198 6.75558 12166 ft 343 kts 289°
2026-05-06 11:50 51.54954 6.71893 12782 ft 350 kts 283°
2026-05-06 11:50 51.55220 6.67972 13437 ft 356 kts 269°
2026-05-06 11:51 51.54908 6.64002 14062 ft 361 kts 256°
2026-05-06 11:51 51.54024 6.60214 14705 ft 364 kts 243°
2026-05-06 11:51 51.52855 6.56589 15361 ft 367 kts 243°
2026-05-06 11:51 51.51692 6.52994 16021 ft 369 kts 243°
2026-05-06 11:52 51.50503 6.49328 16683 ft 371 kts 243°
2026-05-06 11:52 51.49305 6.45641 17289 ft 374 kts 243°
2026-05-06 11:52 51.48100 6.41931 17924 ft 376 kts 243°
2026-05-06 11:52 51.46702 6.38373 18464 ft 380 kts 232°
2026-05-06 11:53 51.44845 6.35350 18972 ft 383 kts 219°
2026-05-06 11:53 51.42600 6.33038 19490 ft 386 kts 206°
2026-05-06 11:53 51.40101 6.31440 20000 ft 388 kts 201°
2026-05-06 11:53 51.37556 6.29950 20502 ft 391 kts 201°
2026-05-06 11:54 51.35031 6.28466 20985 ft 393 kts 201°
2026-05-06 11:54 51.32461 6.26951 21473 ft 395 kts 201°
2026-05-06 11:54 51.29869 6.25421 21967 ft 398 kts 201°
2026-05-06 11:54 51.27263 6.23889 22430 ft 401 kts 201°
2026-05-06 11:55 51.24640 6.22351 22896 ft 403 kts 201°
2026-05-06 11:55 51.21995 6.20802 23381 ft 405 kts 201°
2026-05-06 11:55 51.19339 6.19247 23769 ft 408 kts 201°
2026-05-06 11:55 51.16672 6.17685 24152 ft 410 kts 200°
2026-05-06 11:56 51.13980 6.16111 24542 ft 413 kts 200°
2026-05-06 11:56 51.11271 6.14533 24941 ft 415 kts 200°
2026-05-06 11:56 51.08592 6.12978 25341 ft 417 kts 200°
2026-05-06 11:56 51.05859 6.11396 25739 ft 419 kts 200°
2026-05-06 11:57 51.03116 6.09800 26119 ft 421 kts 201°
2026-05-06 11:57 51.00483 6.07765 26507 ft 422 kts 211°
2026-05-06 11:57 50.97984 6.05295 26871 ft 424 kts 212°
2026-05-06 11:57 50.95476 6.02804 27219 ft 426 kts 212°
2026-05-06 11:58 50.92945 6.00351 27608 ft 428 kts 210°
2026-05-06 11:58 50.90346 5.98022 27974 ft 429 kts 208°
2026-05-06 11:58 50.87740 5.95823 28287 ft 432 kts 207°
2026-05-06 11:58 50.85066 5.93634 28644 ft 433 kts 207°
2026-05-06 11:59 50.82388 5.91448 28976 ft 435 kts 207°
2026-05-06 11:59 50.79701 5.89218 29280 ft 437 kts 207°
2026-05-06 11:59 50.77022 5.86944 29585 ft 438 kts 207°
2026-05-06 11:59 50.74341 5.84633 29913 ft 440 kts 208°
2026-05-06 12:00 50.71656 5.82303 30167 ft 441 kts 208°
2026-05-06 12:00 50.68963 5.79966 30476 ft 442 kts 208°
2026-05-06 12:00 50.66309 5.77669 30895 ft 440 kts 208°
2026-05-06 12:00 50.63628 5.75357 31274 ft 439 kts 207°
2026-05-06 12:01 50.60833 5.73449 31620 ft 438 kts 198°
2026-05-06 12:01 50.57881 5.72309 31985 ft 437 kts 188°
2026-05-06 12:01 50.54855 5.71934 32302 ft 437 kts 180°
2026-05-06 12:01 50.51825 5.72306 32602 ft 437 kts 174°
2026-05-06 12:02 50.48804 5.72889 32870 ft 438 kts 174°
2026-05-06 12:02 50.45777 5.73478 33165 ft 439 kts 174°
2026-05-06 12:02 50.42788 5.74060 33483 ft 439 kts 174°
2026-05-06 12:02 50.39759 5.74642 33820 ft 438 kts 174°
2026-05-06 12:03 50.36730 5.75223 34118 ft 438 kts 174°
2026-05-06 12:03 50.33703 5.75800 34394 ft 438 kts 174°
2026-05-06 12:03 50.30679 5.76374 34656 ft 437 kts 174°
2026-05-06 12:03 50.27661 5.76943 34930 ft 437 kts 174°
2026-05-06 12:04 50.24652 5.77506 35256 ft 434 kts 174°
2026-05-06 12:04 50.21659 5.78071 35557 ft 433 kts 174°
2026-05-06 12:04 50.18709 5.78632 35824 ft 432 kts 174°
2026-05-06 12:04 50.15726 5.79200 36066 ft 432 kts 174°
2026-05-06 12:05 50.12744 5.79766 36299 ft 431 kts 174°
2026-05-06 12:05 50.09766 5.80326 36522 ft 431 kts 174°
2026-05-06 12:05 50.06821 5.81216 36725 ft 433 kts 165°
2026-05-06 12:05 50.03951 5.82662 36830 ft 433 kts 163°
2026-05-06 12:06 49.98237 5.85633 36837 ft 433 kts 163°
2026-05-06 12:06 49.92569 5.88565 36837 ft 432 kts 163°
2026-05-06 12:07 49.86857 5.91500 36824 ft 432 kts 163°
2026-05-06 12:07 49.81154 5.94427 36816 ft 432 kts 163°
2026-05-06 12:08 49.75447 5.97354 36812 ft 432 kts 163°
2026-05-06 12:08 49.69774 6.00252 36816 ft 432 kts 163°
2026-05-06 12:09 49.64057 6.03161 36816 ft 433 kts 163°
2026-05-06 12:09 49.58340 6.06076 36815 ft 433 kts 163°
2026-05-06 12:10 49.52621 6.08976 36817 ft 433 kts 164°
2026-05-06 12:10 49.47094 6.12494 36827 ft 436 kts 150°
2026-05-06 12:11 49.42254 6.18171 36822 ft 438 kts 143°
2026-05-06 12:11 49.37519 6.24059 36819 ft 438 kts 143°
2026-05-06 12:12 49.32779 6.29912 36816 ft 437 kts 144°
2026-05-06 12:12 49.28046 6.35744 36819 ft 436 kts 144°
2026-05-06 12:13 49.23352 6.41512 36821 ft 435 kts 144°
2026-05-06 12:13 49.18624 6.47295 36834 ft 435 kts 144°
2026-05-06 12:14 49.13899 6.53072 36831 ft 435 kts 144°
2026-05-06 12:14 49.09207 6.58802 36812 ft 435 kts 144°
2026-05-06 12:15 49.04474 6.64549 36787 ft 435 kts 144°
2026-05-06 12:15 48.99404 6.69421 36787 ft 429 kts 161°
2026-05-06 12:16 48.93660 6.71382 36780 ft 422 kts 180°
2026-05-06 12:16 48.87839 6.71194 36783 ft 422 kts 183°
2026-05-06 12:17 48.81965 6.70958 36783 ft 423 kts 183°
2026-05-06 12:17 48.76076 6.70737 36786 ft 424 kts 183°
2026-05-06 12:18 48.70177 6.70508 36795 ft 424 kts 183°
2026-05-06 12:18 48.64213 6.70279 36810 ft 434 kts 183°
2026-05-06 12:19 48.58157 6.70040 36817 ft 437 kts 183°
2026-05-06 12:19 48.52118 6.69807 36817 ft 437 kts 183°
2026-05-06 12:20 48.46035 6.69573 36830 ft 437 kts 183°
2026-05-06 12:20 48.39953 6.69340 36839 ft 438 kts 183°
2026-05-06 12:21 48.33867 6.69103 36833 ft 437 kts 183°
2026-05-06 12:21 48.27786 6.68870 36841 ft 437 kts 183°
2026-05-06 12:22 48.21751 6.68642 36842 ft 437 kts 183°
2026-05-06 12:22 48.15673 6.68412 36852 ft 437 kts 183°
2026-05-06 12:23 48.09592 6.68186 36864 ft 437 kts 183°
2026-05-06 12:23 48.03508 6.67947 36867 ft 437 kts 183°
2026-05-06 12:24 47.97468 6.67717 36885 ft 437 kts 183°
2026-05-06 12:24 47.91386 6.67490 36889 ft 437 kts 183°
2026-05-06 12:25 47.85309 6.67262 36890 ft 437 kts 183°
2026-05-06 12:25 47.79238 6.67042 36889 ft 436 kts 183°
2026-05-06 12:26 47.73218 6.66813 36898 ft 435 kts 183°
2026-05-06 12:26 47.67168 6.66582 36903 ft 435 kts 183°
2026-05-06 12:27 47.61116 6.66352 36906 ft 435 kts 183°
2026-05-06 12:27 47.55107 6.66130 36901 ft 434 kts 183°
2026-05-06 12:28 47.49066 6.65906 36902 ft 435 kts 183°
2026-05-06 12:28 47.43037 6.65390 36903 ft 432 kts 192°
2026-05-06 12:29 47.37457 6.62310 36901 ft 429 kts 212°
2026-05-06 12:29 47.32777 6.56861 36902 ft 430 kts 220°
2026-05-06 12:30 47.28249 6.51186 36904 ft 430 kts 219°
2026-05-06 12:30 47.23686 6.45503 36908 ft 430 kts 219°
2026-05-06 12:31 47.19115 6.39816 36906 ft 430 kts 219°
2026-05-06 12:31 47.14555 6.34134 36912 ft 430 kts 220°
2026-05-06 12:32 47.10019 6.28508 36916 ft 429 kts 217°
2026-05-06 12:32 47.04802 6.24352 36920 ft 429 kts 198°
2026-05-06 12:33 46.98905 6.22928 36914 ft 432 kts 187°
2026-05-06 12:33 46.92930 6.22132 36917 ft 431 kts 187°
2026-05-06 12:34 46.86961 6.21331 36916 ft 431 kts 187°
2026-05-06 12:34 46.81035 6.20542 36916 ft 431 kts 187°
2026-05-06 12:35 46.75068 6.19756 36912 ft 431 kts 187°
2026-05-06 12:35 46.69100 6.18965 36919 ft 431 kts 187°
2026-05-06 12:36 46.63130 6.18175 36922 ft 431 kts 187°
2026-05-06 12:36 46.57202 6.17387 36920 ft 430 kts 187°
2026-05-06 12:37 46.51239 6.16597 36919 ft 430 kts 187°
2026-05-06 12:37 46.45277 6.15810 36918 ft 430 kts 187°
2026-05-06 12:38 46.39311 6.15034 36935 ft 431 kts 187°
2026-05-06 12:38 46.33344 6.14268 36947 ft 431 kts 187°
2026-05-06 12:39 46.27414 6.13493 36952 ft 431 kts 187°
2026-05-06 12:39 46.21466 6.12539 36951 ft 430 kts 190°
2026-05-06 12:40 46.15567 6.11166 36944 ft 429 kts 192°
2026-05-06 12:40 46.09683 6.09733 36942 ft 429 kts 191°
2026-05-06 12:41 46.03781 6.08393 36946 ft 429 kts 191°
2026-05-06 12:41 45.97918 6.07120 36932 ft 429 kts 191°
2026-05-06 12:42 45.92018 6.05828 36944 ft 428 kts 191°
2026-05-06 12:42 45.86128 6.04526 36950 ft 428 kts 191°
2026-05-06 12:43 45.80232 6.03224 36939 ft 429 kts 191°
2026-05-06 12:43 45.74378 6.01923 36951 ft 429 kts 191°
2026-05-06 12:44 45.68484 6.00626 36953 ft 429 kts 191°
2026-05-06 12:44 45.62584 5.99334 36946 ft 429 kts 191°
2026-05-06 12:45 45.56686 5.98040 36953 ft 429 kts 191°
2026-05-06 12:46 45.47880 5.96119 36960 ft 428 kts 192°
2026-05-06 12:46 45.42041 5.94507 36941 ft 427 kts 195°
2026-05-06 12:47 45.36258 5.92576 36954 ft 427 kts 196°
2026-05-06 12:47 45.30475 5.90665 36954 ft 426 kts 195°
2026-05-06 12:48 45.24717 5.88872 36960 ft 427 kts 195°
2026-05-06 12:48 45.18917 5.87091 36946 ft 426 kts 195°
2026-05-06 12:49 45.13134 5.85309 36948 ft 425 kts 195°
2026-05-06 12:49 45.07356 5.83524 36946 ft 425 kts 195°
2026-05-06 12:50 45.01626 5.81747 36931 ft 424 kts 195°
2026-05-06 12:50 44.95867 5.79962 36941 ft 423 kts 195°
2026-05-06 12:51 44.90115 5.78195 36940 ft 423 kts 195°
2026-05-06 12:51 44.85338 5.76734 36937 ft 422 kts 195°
2026-05-06 12:52 44.78679 5.74701 36937 ft 421 kts 195°
2026-05-06 12:52 44.72963 5.72961 36940 ft 420 kts 195°
2026-05-06 12:53 44.68226 5.71525 36930 ft 419 kts 195°
2026-05-06 12:53 44.62520 5.69790 36927 ft 420 kts 195°
2026-05-06 12:54 44.55871 5.67765 36912 ft 422 kts 195°
2026-05-06 12:54 44.51101 5.66317 36913 ft 422 kts 195°
2026-05-06 12:55 44.45352 5.64580 36902 ft 423 kts 195°
2026-05-06 12:55 44.39607 5.62844 36912 ft 422 kts 195°
2026-05-06 12:56 44.33218 5.59738 36912 ft 418 kts 204°
2026-05-06 12:56 44.28723 5.57265 36910 ft 418 kts 204°
2026-05-06 12:57 44.23310 5.54299 36904 ft 418 kts 204°
2026-05-06 12:57 44.17901 5.51341 36907 ft 417 kts 204°
2026-05-06 12:58 44.12495 5.48404 36912 ft 417 kts 204°
2026-05-06 12:58 44.07088 5.45469 36901 ft 417 kts 204°
2026-05-06 12:59 44.01728 5.42560 36908 ft 416 kts 204°
2026-05-06 12:59 43.96338 5.39643 36912 ft 415 kts 204°
2026-05-06 13:00 43.90958 5.36726 36914 ft 415 kts 204°
2026-05-06 13:00 43.85578 5.33812 36907 ft 415 kts 204°
2026-05-06 13:01 43.80238 5.30939 36928 ft 415 kts 204°
2026-05-06 13:01 43.74851 5.28042 36920 ft 416 kts 204°
2026-05-06 13:02 43.69461 5.25145 36900 ft 416 kts 204°
2026-05-06 13:02 43.64073 5.22247 36915 ft 415 kts 204°
2026-05-06 13:03 43.58685 5.19362 36938 ft 415 kts 204°
2026-05-06 13:03 43.53340 5.16508 36948 ft 415 kts 204°
2026-05-06 13:04 43.47960 5.13647 36944 ft 414 kts 205°
2026-05-06 13:04 43.42589 5.10792 36949 ft 413 kts 205°
2026-05-06 13:05 43.37396 5.07529 36947 ft 408 kts 216°
2026-05-06 13:05 43.32748 5.03147 36944 ft 408 kts 217°
2026-05-06 13:06 43.28083 4.98740 36939 ft 407 kts 217°
2026-05-06 13:06 43.23414 4.94353 36956 ft 406 kts 217°
2026-05-06 13:07 43.18746 4.89974 36950 ft 407 kts 217°
2026-05-06 13:07 43.14105 4.85620 36951 ft 407 kts 217°
2026-05-06 13:08 43.09425 4.81252 36933 ft 407 kts 217°
2026-05-06 13:08 43.04697 4.76990 36943 ft 408 kts 212°
2026-05-06 13:09 42.99724 4.73220 36955 ft 409 kts 212°
2026-05-06 13:09 42.94755 4.69451 36960 ft 409 kts 212°
2026-05-06 13:10 42.89818 4.65712 36957 ft 408 kts 212°
2026-05-06 13:10 42.84850 4.61964 36971 ft 408 kts 212°
2026-05-06 13:11 42.79880 4.58218 36971 ft 408 kts 212°
2026-05-06 13:11 42.74914 4.54475 36966 ft 408 kts 212°
2026-05-06 13:12 42.69937 4.50734 36961 ft 409 kts 212°
2026-05-06 13:12 42.64984 4.47030 36959 ft 409 kts 212°
2026-05-06 13:13 42.59996 4.43301 36965 ft 409 kts 212°
2026-05-06 13:13 42.55007 4.39571 36964 ft 410 kts 212°
2026-05-06 13:14 42.50014 4.35846 36952 ft 410 kts 212°
2026-05-06 13:14 42.45051 4.32160 36968 ft 409 kts 212°
2026-05-06 13:15 42.40061 4.28457 36978 ft 409 kts 212°
2026-05-06 13:15 42.35074 4.24747 36983 ft 409 kts 212°
2026-05-06 13:16 42.30086 4.21052 36971 ft 408 kts 212°
2026-05-06 13:16 42.25138 4.17397 36980 ft 408 kts 212°
2026-05-06 13:17 42.20168 4.13732 36982 ft 408 kts 212°
2026-05-06 13:17 42.15178 4.10062 36985 ft 408 kts 212°
2026-05-06 13:18 42.10192 4.06398 36959 ft 408 kts 212°
2026-05-06 13:18 42.05260 4.02772 36966 ft 408 kts 212°
2026-05-06 13:19 42.00280 3.99126 36971 ft 407 kts 212°
2026-05-06 13:19 41.95303 3.95501 36976 ft 407 kts 212°
2026-05-06 13:20 41.89988 3.92801 36945 ft 415 kts 195°
2026-05-06 13:20 41.84322 3.91499 36949 ft 416 kts 195°
2026-05-06 13:21 41.78621 3.90183 36959 ft 416 kts 195°
2026-05-06 13:21 41.72921 3.88870 36966 ft 416 kts 195°
2026-05-06 13:22 41.67214 3.87557 36946 ft 416 kts 195°
2026-05-06 13:22 41.61509 3.86250 36958 ft 416 kts 195°
2026-05-06 13:23 41.55845 3.84952 36970 ft 416 kts 195°
2026-05-06 13:23 41.50143 3.83642 36974 ft 416 kts 195°
2026-05-06 13:24 41.44444 3.82337 36956 ft 415 kts 195°
2026-05-06 13:24 41.38746 3.81029 36972 ft 415 kts 195°
2026-05-06 13:25 41.33084 3.79742 36971 ft 416 kts 195°
2026-05-06 13:25 41.27373 3.78442 36950 ft 417 kts 195°
2026-05-06 13:26 41.21654 3.77143 36957 ft 417 kts 195°
2026-05-06 13:26 41.15932 3.75843 36965 ft 417 kts 195°
2026-05-06 13:27 41.10248 3.74562 36965 ft 417 kts 195°
2026-05-06 13:27 41.04529 3.73278 36938 ft 417 kts 195°
2026-05-06 13:28 40.98814 3.71987 36948 ft 417 kts 195°
2026-05-06 13:28 40.93098 3.70687 36958 ft 417 kts 195°
2026-05-06 13:29 40.87380 3.69389 36962 ft 417 kts 195°
2026-05-06 13:29 40.81704 3.68122 36941 ft 416 kts 195°
2026-05-06 13:30 40.75993 3.66854 36952 ft 416 kts 195°
2026-05-06 13:30 40.70288 3.65572 36956 ft 416 kts 195°
2026-05-06 13:31 40.64580 3.64290 36960 ft 416 kts 195°
2026-05-06 13:31 40.58905 3.63033 36962 ft 416 kts 195°
2026-05-06 13:32 40.53192 3.61770 36963 ft 416 kts 195°
2026-05-06 13:32 40.47477 3.60501 36965 ft 416 kts 195°
2026-05-06 13:33 40.41762 3.59229 36814 ft 417 kts 195°
2026-05-06 13:33 40.38905 3.58588 36544 ft 416 kts 195°
2026-05-06 13:33 40.36048 3.57949 36294 ft 416 kts 195°
2026-05-06 13:33 40.33191 3.57318 36042 ft 416 kts 195°
2026-05-06 13:34 40.30372 3.56700 35791 ft 416 kts 195°
2026-05-06 13:34 40.27514 3.56073 35157 ft 418 kts 195°
2026-05-06 13:34 40.24632 3.55439 34343 ft 422 kts 195°
2026-05-06 13:34 40.21734 3.54801 33614 ft 422 kts 195°
2026-05-06 13:35 40.18820 3.54158 32538 ft 428 kts 195°
2026-05-06 13:35 40.15880 3.53505 31626 ft 430 kts 195°
2026-05-06 13:35 40.12917 3.52847 30720 ft 433 kts 195°
2026-05-06 13:35 40.09950 3.52197 30184 ft 431 kts 194°
2026-05-06 13:36 40.06987 3.51553 29985 ft 432 kts 194°
2026-05-06 13:36 40.01059 3.50262 29959 ft 432 kts 194°
2026-05-06 13:37 39.95161 3.48967 29955 ft 433 kts 194°
2026-05-06 13:37 39.89204 3.47669 29956 ft 434 kts 194°
2026-05-06 13:38 39.83241 3.46374 29959 ft 434 kts 194°
2026-05-06 13:38 39.77299 3.45088 28769 ft 429 kts 194°
2026-05-06 13:38 39.74450 3.44193 26772 ft 430 kts 204°
2026-05-06 13:39 39.71751 3.42517 24885 ft 431 kts 215°
2026-05-06 13:39 39.69415 3.40137 23207 ft 429 kts 226°
2026-05-06 13:39 39.67522 3.37191 21624 ft 422 kts 237°
2026-05-06 13:39 39.66112 3.33896 20143 ft 415 kts 243°
2026-05-06 13:40 39.64828 3.30560 18741 ft 411 kts 243°
2026-05-06 13:40 39.63554 3.27263 17285 ft 406 kts 243°
2026-05-06 13:40 39.62296 3.24019 15887 ft 400 kts 243°
2026-05-06 13:40 39.61053 3.20818 14560 ft 394 kts 244°
2026-05-06 13:41 39.59848 3.17707 13257 ft 388 kts 244°
2026-05-06 13:41 39.58646 3.14601 11890 ft 383 kts 244°
2026-05-06 13:41 39.57477 3.11586 11257 ft 362 kts 244°
2026-05-06 13:41 39.56359 3.08706 10124 ft 357 kts 243°
2026-05-06 13:42 39.55252 3.05856 8883 ft 354 kts 243°
2026-05-06 13:42 39.54154 3.03032 7899 ft 345 kts 243°
2026-05-06 13:42 39.53117 3.00374 7712 ft 315 kts 244°
2026-05-06 13:42 39.52171 2.97957 7580 ft 287 kts 244°
2026-05-06 13:43 39.51307 2.95743 7455 ft 275 kts 244°
2026-05-06 13:43 39.50446 2.93543 7335 ft 273 kts 244°
2026-05-06 13:43 39.49591 2.91356 7210 ft 272 kts 244°
2026-05-06 13:43 39.48740 2.89173 7080 ft 272 kts 244°
2026-05-06 13:44 39.47887 2.86992 6959 ft 271 kts 243°
2026-05-06 13:44 39.47036 2.84823 6835 ft 271 kts 244°
2026-05-06 13:44 39.46187 2.82652 6718 ft 269 kts 244°
2026-05-06 13:44 39.45345 2.80492 6596 ft 269 kts 244°
2026-05-06 13:45 39.44501 2.78334 6467 ft 269 kts 244°
2026-05-06 13:45 39.42819 2.74048 6226 ft 269 kts 244°
2026-05-06 13:45 39.41973 2.71898 6093 ft 269 kts 244°
2026-05-06 13:46 39.41124 2.69740 5866 ft 270 kts 244°
2026-05-06 13:46 39.40272 2.67575 5376 ft 272 kts 243°
2026-05-06 13:46 39.39409 2.65386 4906 ft 272 kts 243°
2026-05-06 13:46 39.38584 2.63180 4336 ft 273 kts 251°
2026-05-06 13:47 39.38356 2.60770 3804 ft 273 kts 277°
2026-05-06 13:47 39.38889 2.58495 3620 ft 258 kts 298°
2026-05-06 13:47 39.39872 2.56703 3515 ft 237 kts 311°
2026-05-06 13:47 39.40954 2.55150 3411 ft 226 kts 314°
2026-05-06 13:48 39.42051 2.53762 3311 ft 219 kts 319°
2026-05-06 13:48 39.43288 2.52767 3216 ft 206 kts 344°
2026-05-06 13:48 39.44692 2.52608 3156 ft 203 kts 11°
2026-05-06 13:48 39.45974 2.53262 3072 ft 200 kts 37°
2026-05-06 13:49 39.46899 2.54591 2915 ft 200 kts 58°
2026-05-06 13:49 39.47621 2.56109 2688 ft 195 kts 59°
2026-05-06 13:49 39.48316 2.57587 2415 ft 188 kts 59°
2026-05-06 13:49 39.48974 2.58974 2173 ft 175 kts 59°
2026-05-06 13:50 39.49590 2.60271 1942 ft 164 kts 59°
2026-05-06 13:50 39.50164 2.61478 1732 ft 156 kts 59°
2026-05-06 13:50 39.50717 2.62643 1531 ft 148 kts 59°
2026-05-06 13:50 39.51252 2.63769 1340 ft 145 kts 60°
2026-05-06 13:51 39.51776 2.64875 1144 ft 144 kts 59°
2026-05-06 13:51 39.52301 2.65980 955 ft 143 kts 59°
2026-05-06 13:51 39.52821 2.67075 786 ft 142 kts 59°
2026-05-06 13:51 39.53332 2.68151 606 ft 140 kts 60°
2026-05-06 13:52 39.53835 2.69213 398 ft 138 kts 58°
2026-05-06 13:52 39.54326 2.70244 234 ft 136 kts 60°
2026-05-06 13:52 39.54813 2.71266 39 ft 129 kts 60°
2026-05-06 13:52 39.55229 2.72149 31 ft 96 kts 58°
2026-05-06 13:53 39.55485 2.72691 30 ft 34 kts 58°
2026-05-06 13:53 39.55489 2.72822 30 ft 15 kts 124°
2026-05-06 13:53 39.55440 2.72914 30 ft 13 kts 125°
2026-05-06 13:53 39.55425 2.73018 30 ft 11 kts 57°
2026-05-06 13:54 39.55473 2.73114 30 ft 14 kts 58°
2026-05-06 13:54 39.55532 2.73237 30 ft 18 kts 58°
2026-05-06 13:54 39.55593 2.73367 30 ft 17 kts 58°
2026-05-06 13:54 39.55634 2.73473 30 ft 9 kts 90°
2026-05-06 13:55 39.55577 2.73538 30 ft 14 kts 148°
2026-05-06 13:55 39.55509 2.73573 30 ft 10 kts 200°
2026-05-06 13:55 39.55474 2.73508 30 ft 10 kts 238°
2026-05-06 13:55 39.55436 2.73449 30 ft 9 kts 199°
2026-05-06 13:56 39.55364 2.73492 30 ft 14 kts 148°
2026-05-06 13:56 39.55275 2.73562 30 ft 16 kts 148°
2026-05-06 13:56 39.55207 2.73615 30 ft 6 kts 149°
2026-05-06 13:56 39.55178 2.73640 30 ft 5 kts 138°
2026-05-06 13:57 39.55183 2.73696 30 ft 9 kts 72°
2026-05-06 13:57 39.55148 2.73766 30 ft 12 kts 148°
2026-05-06 13:57 39.55075 2.73824 30 ft 9 kts 148°
2026-05-06 13:57 39.55038 2.73800 30 ft 6 kts 239°
2026-05-06 13:58 39.55018 2.73757 30 ft 5 kts 239°
2026-05-06 13:58 39.55006 2.73731 30 ft 3 kts 238°
2026-05-06 13:58 39.55003 2.73725 30 ft 0 kts 238°